Flag for France Weather past 2 weeks in Marseille, France

Now
68 °F

Partly cloudy.


Feels Like: 68 °F
Forecast: 60 / 74 °F
Wind: 14 mph from East

Location: Marseille / Marignane

Current Time: Sep 24, 2014 at 6:26:19 AM

Latest Report: Sep 24, 2014 at 6:00 AM


Visibility: N/A

Pressure: 29.92 "Hg

Humidity: 64%

Dew point: 55 °F

Location of MarseilleLocation

Historic Weather in Marseille — Graph

°F

Marseille temperature yesterday

Maximum temperature yesterday: 79 °F (at 4:00 PM)
Minimum temperature yesterday: 57 °F (at 6:00 AM)
Average temperature yesterday: 67 °F

Past Weeks' High & Low Weather Summary

 TemperatureHumidityPressure
High86 °F (Sep 10, 4:00 PM)94% (Sep 10, 8:30 AM)30.04 "Hg (Sep 10, 8:30 AM)
Low57 °F (Sep 13, 7:30 AM)23% (Sep 11, 5:30 PM)29.77 "Hg (Sep 10, 6:00 PM)
Average73 °F65%29.91 "Hg
* Reported Sep 9 5:00 AM — Sep 24 5:30 AM, Marseille, Weather by CustomWeather, © 2014

Note: Actual official high and low records may vary slightly from our data, if they occured in-between our weather recording intervals... More about our weather records

Advertising

Marseille weather history for previous 24 hours

 ConditionsComfort  
Time TempWeatherWind HumidityBarometerVisibility
5:30 AM
Sep 24
68 °FPartly cloudy.15 mph64%29.92 "HgN/A
5:00 AM68 °FClear.16 mph60%29.92 "Hg10 mi
4:30 AM68 °FClear.20 mph56%29.92 "HgN/A
4:00 AM68 °FClear.12 mph56%29.92 "HgN/A
3:30 AM68 °FClear.12 mph56%29.92 "HgN/A
3:00 AM68 °FMostly cloudy.14 mph56%29.95 "HgN/A
2:30 AM68 °FPartly cloudy.14 mph53%29.95 "HgN/A
2:00 AM68 °FPartly cloudy.16 mph49%29.95 "HgN/A
1:30 AM68 °FPartly cloudy.13 mph53%29.95 "HgN/A
1:00 AM70 °FPassing clouds.13 mph60%29.95 "HgN/A
12:30 AM70 °FPassing clouds.15 mph57%29.95 "HgN/A
12:00 AM72 °FPassing clouds.16 mph57%29.95 "HgN/A
11:30 PM
Sep 23
72 °FPassing clouds.12 mph53%29.95 "HgN/A
11:00 PM70 °FPassing clouds.7 mph60%29.95 "HgN/A
10:30 PM70 °FPassing clouds.5 mph60%29.95 "HgN/A
10:00 PM70 °FPassing clouds.7 mph60%29.95 "HgN/A
9:30 PM70 °FPassing clouds.6 mph60%29.95 "HgN/A
9:00 PM70 °FPassing clouds.2 mph64%29.95 "HgN/A
8:30 PM70 °FSunny.7 mph69%29.95 "Hg10 mi
8:00 PM70 °FSunny.5 mph73%29.95 "Hg10 mi
7:30 PM72 °FSunny.3 mph69%29.95 "Hg10 mi
7:00 PM72 °FSunny.3 mph69%29.92 "Hg10 mi
6:30 PM72 °FPartly sunny.7 mph69%29.92 "HgN/A
5:54 PM73 °FSunny.7 mph65%29.92 "Hg10 mi
5:30 PM73 °FPassing clouds.7 mph65%29.92 "HgN/A
5:00 PM73 °FSunny.13 mph65%29.92 "Hg10 mi
4:30 PM75 °FSunny.9 mph61%29.89 "Hg10 mi
4:00 PM79 °FPartly sunny.3 mph42%29.89 "HgN/A
3:30 PM77 °FPassing clouds.5 mph44%29.89 "HgN/A
3:00 PM75 °FSunny.7 mph50%29.89 "Hg10 mi
2:00 PM75 °FPassing clouds.6 mph50%29.89 "HgN/A
1:30 PM75 °FPartly sunny.3 mph50%29.89 "HgN/A
1:00 PM73 °FPartly sunny.6 mph53%29.89 "HgN/A
12:30 PM72 °FPartly sunny.6 mph57%29.89 "HgN/A
12:00 PM70 °FPartly sunny.3 mph57%29.89 "HgN/A
11:30 AM70 °FSunny.6 mph57%29.89 "Hg10 mi
11:00 AM66 °FSunny.6 mph60%29.89 "Hg10 mi
10:30 AM66 °FSunny.8 mph60%29.89 "Hg10 mi
10:00 AM64 °FSunny.9 mph64%29.89 "Hg10 mi
9:30 AM63 °FSunny.12 mph68%29.89 "Hg10 mi
9:00 AM61 °FSunny.12 mph72%29.89 "Hg10 mi
8:30 AM59 °FSunny.12 mph77%29.86 "Hg10 mi
8:00 AM57 °FClear.2 mph77%29.86 "Hg10 mi
7:30 AM57 °FClear.9 mph77%29.86 "Hg10 mi
7:00 AM57 °FClear.8 mph77%29.86 "Hg10 mi
6:30 AM59 °FPassing clouds.6 mph72%29.83 "HgN/A
6:00 AM57 °FClear.6 mph77%29.83 "Hg10 mi
Weather by CustomWeather, © 2014

See weather overviewHow to use our weather pages